DW2917 Weather Reports


Display with metric or nautical units.
time (UTC)temp
F
wind
direction
speed
MPH
gust
MPH
rain 1hr
in
rain 24hr
in
rain mn
in
humidity
%
barometer
mb
20260505074559 60 217 3.0 0.0 0.00 0.00 0.00 65 1009.6
20260505073100 60 220 3.0 0.0 0.00 0.00 0.00 65 1009.5
20260505071559 59 227 3.0 0.0 0.00 0.00 0.00 66 1009.5
20260505070059 59 219 2.0 0.0 0.00 0.00 0.00 66 1009.5
20260505064556 59 215 2.0 0.0 0.00 0.00 0.00 66 1009.5
20260505063059 60 215 3.0 0.0 0.00 0.00 0.00 65 1009.6
20260505061600 60 218 2.0 0.0 0.00 0.00 0.00 65 1009.6
20260505060052 60 215 3.0 0.0 0.00 0.00 0.00 64 1009.6
20260505054550 61 198 3.0 0.0 0.00 0.00 0.00 63 1009.6
20260505053045 61 213 4.0 0.0 0.00 0.00 0.00 62 1009.7
20260505051541 62 215 4.0 0.0 0.00 0.00 0.00 61 1009.9
20260505050116 62 214 5.0 0.0 0.00 0.00 0.00 60 1009.8
20260505041539 63 218 4.0 0.0 0.00 0.00 0.00 57 1009.5
20260505040019 63 225 4.0 0.0 0.00 0.00 0.00 57 1009.6
20260505034518 62 223 4.0 0.0 0.00 0.00 0.00 57 1009.6
20260505033018 63 239 5.0 0.0 0.00 0.00 0.00 56 1009.6
20260505031518 63 215 4.0 0.0 0.00 0.00 0.00 55 1009.6
20260505030019 63 218 3.0 0.0 0.00 0.00 0.00 55 1009.6
20260505024520 63 261 3.0 0.0 0.00 0.00 0.00 54 1009.6
20260505023017 63 217 2.0 0.0 0.00 0.00 0.00 54 1009.6
20260505021516 63 219 2.0 0.0 0.00 0.00 0.00 54 1009.6
20260505020019 64 211 3.0 0.0 0.00 0.00 0.00 52 1009.6
20260505014517 63 211 2.0 0.0 0.00 0.00 0.00 52 1009.7
20260505013019 65 208 3.0 0.0 0.00 0.00 0.00 50 1009.3
20260505011521 65 215 2.0 0.0 0.00 0.00 0.00 49 1009.1
20260505010014 66 201 3.0 0.0 0.00 0.00 0.00 46 1009.1
20260505004522 67 208 3.0 0.0 0.00 0.00 0.00 45 1009.0
20260505003012 67 222 3.0 0.0 0.00 0.00 0.00 45 1009.1
20260505001512 68 183 3.0 0.0 0.00 0.00 0.00 44 1008.9
20260505000021 69 198 5.0 0.0 0.00 0.00 0.00 43 1008.9
20260504234510 69 186 6.0 0.0 0.00 0.00 0.00 41 1008.6
20260504233012 70 210 6.0 0.0 0.00 0.00 0.00 40 1008.6
20260504231508 71 189 6.0 0.0 0.00 0.00 0.00 39 1008.7
20260504230020 72 180 5.0 0.0 0.00 0.00 0.00 38 1008.7
20260504224506 71 198 5.0 0.0 0.00 0.00 0.00 41 1008.7
20260504223006 72 205 6.0 0.0 0.00 0.00 0.00 37 1008.7
20260504221505 72 223 7.0 0.0 0.00 0.00 0.00 37 1008.7
20260504220005 72 214 5.0 0.0 0.00 0.00 0.00 37 1008.8
20260504214504 72 224 5.0 0.0 0.00 0.00 0.00 41 1008.7
20260504213013 73 182 7.0 0.0 0.00 0.00 0.00 38 1008.7
20260504211508 74 200 5.0 0.0 0.00 0.00 0.00 36 1008.7
20260504210003 73 258 6.0 0.0 0.00 0.00 0.00 38 1008.7
20260504204604 73 245 6.0 0.0 0.00 0.00 0.00 38 1008.7
20260504203122 73 182 4.0 0.0 0.00 0.00 0.00 37 1008.7
20260504201559 72 334 7.0 0.0 0.00 0.00 0.00 41 1009.2
20260504200058 73 215 5.0 0.0 0.00 0.00 0.00 43 1009.3
20260504194605 73 180 4.0 0.0 0.00 0.00 0.00 39 1009.4
20260504193103 72 201 5.0 0.0 0.00 0.00 0.00 41 1009.9
20260504191552 72 191 6.0 0.0 0.00 0.00 0.00 38 1010.3
20260504190109 72 293 5.0 0.0 0.00 0.00 0.00 36 1010.4
20260504184559 71 218 6.0 0.0 0.00 0.00 0.00 36 1010.7
20260504183046 71 241 5.0 0.0 0.00 0.00 0.00 38 1010.9
20260504181545 70 214 6.0 0.0 0.00 0.00 0.00 38 1011.0
20260504180047 70 180 6.0 0.0 0.00 0.00 0.00 40 1011.1
20260504174543 70 329 5.0 0.0 0.00 0.00 0.00 36 1011.3
20260504173048 70 221 5.0 0.0 0.00 0.00 0.00 38 1011.4
20260504171540 69 308 4.0 0.0 0.00 0.00 0.00 37 1011.5
20260504140107 60 227 4.0 0.0 0.00 0.00 0.00 47 1013.3
20260504100105 43 305 0.0 0.0 0.00 0.00 0.00 82 1013.9
20260504090118 43 305 0.0 0.0 0.00 0.00 0.00 79 1014.3
20260504081554 42 305 0.0 0.0 0.00 0.00 0.00 75 1014.5